This demonstration page uses our WeatherBlox Daily Observations layout. Learn more.

Left ArrowRight Arrow

Hourly Observations for May 26, 2022

Temp ( °F °C ) Dew Point ( °F °C ) Humidity (%) Winds ( mph kmh ) Pressure ( in mb ) Visibility ( mi km ) Precip ( " mm )
12:52 am 00:52 Clear 55 12.8 52 11.1 90 90 S 10 17 29.70 1006 10 16 0.00 0.00
1:52 am 01:52 Partly Cloudy 55 12.8 52 11.1 90 90 S 9 15 29.69 1006 10 16 0.00 0.00
2:52 am 02:52 Cloudy 56 13.3 52 11.1 87 87 S 8 13 29.67 1005 10 16 0.00 0.00
3:52 am 03:52 Cloudy 55 12.8 51 10.6 87 87 SSE 13 20 29.67 1005 10 16 0.00 0.00
4:12 am 04:12 Cloudy with Light Rain 54 12.2 52 11.1 93 93 SSE 10 17 29.69 1005 6 10 0.00 0.00
4:52 am 04:52 Cloudy with Light Rain 54 12.2 53 11.7 97 97 SSE 10 17 29.65 1004 7 11 0.00 0.00
5:39 am 05:39 Cloudy with Rain 54 12.2 53 11.7 97 97 SSE 7 11 29.68 1005 6 10 0.04 1.02
5:52 am 05:52 Cloudy with Rain 54 12.2 52 11.1 93 93 SE 8 13 29.66 1004 7 11 0.06 1.52
6:34 am 06:34 Cloudy with Light Rain 54 12.2 52 11.1 93 93 SE 9 15 29.68 1005 6 10 0.06 1.52
6:52 am 06:52 Cloudy with Rain 54 12.2 52 11.1 93 93 SE 13 20 29.66 1004 4 6 0.08 2.03
7:07 am 07:07 Cloudy with Light Rain 53 11.7 53 11.7 100 100 S 13 20 29.69 1006 4 6 0.05 1.27
7:14 am 07:14 Cloudy with Light Rain 53 11.7 52 11.1 96 96 S 13 20 29.69 1006 9 14 0.05 1.27
7:23 am 07:23 Cloudy with Light Rain 53 11.7 52 11.1 96 96 SSW 8 13 29.69 1006 8 13 0.06 1.52
7:52 am 07:52 Cloudy with Light Rain 54 12.2 53 11.7 97 97 S 7 11 29.68 1005 10 16 0.07 1.78
8:50 am 08:50 Cloudy with Light Rain 55 13 54 12 94 94 S 9 15 29.71 1006 10 16 0.02 0.51
8:52 am 08:52 Cloudy with Light Rain 55 12.8 53 11.7 93 93 SSW 8 13 29.69 1005 10 16 0.02 0.51
9:07 am 09:07 Cloudy with Light Rain 55 12.8 53 11.7 93 93 S 7 11 29.71 1006 10 16 0.00 0.00
9:52 am 09:52 Cloudy 56 13.3 53 11.7 90 90 SW 8 13 29.69 1005 10 16 0.00 0.00
10:18 am 10:18 Cloudy with Light Rain 56 13.3 52 11.1 87 87 WSW 7 11 29.70 1006 9 14 0.00 0.00
10:27 am 10:27 Cloudy 56 13.3 52 11.1 87 87 WSW 7 11 29.71 1006 10 16 0.00 0.00
10:52 am 10:52 Cloudy 56 13.3 53 11.7 90 90 SW 6 9 29.70 1006 10 16 0.00 0.00
10:56 am 10:56 Cloudy 56 13.3 53 11.7 90 90 SSW 5 7 29.71 1006 10 16 0.00 0.00
11:02 am 11:02 Cloudy 56 13.3 53 11.7 90 90 SSW 6 9 29.71 1006 10 16 0.00 0.00
11:13 am 11:13 Cloudy 56 13.3 52 11.1 87 87 WSW 3 6 29.72 1006 10 16 0.00 0.00
11:52 am 11:52 Cloudy with Rain 56 13.3 53 11.7 90 90 W 12 19 29.72 1006 4 6 0.01 0.25
12:02 pm 12:02 Cloudy with Rain 55 12.8 53 11.7 93 93 WNW 8 13 29.73 1007 3 4 0.08 2.03
12:09 pm 12:09 Cloudy with Rain 55 12.8 53 11.7 93 93 W 8 13 29.73 1007 5 8 0.09 2.29
12:45 pm 12:45 Cloudy with Rain 56 13.3 54 12.2 93 93 WNW 8 13 29.74 1007 4 6 0.12 3.05
12:50 pm 12:50 Cloudy with Light Rain 55 13 54 12 94 94 WNW 5 7 29.74 1007 5 8 0.13 3.30
12:52 pm 12:52 Cloudy with Light Rain 56 13.3 54 12.2 93 93 WNW 6 9 29.73 1007 7 11 0.13 3.30
1:00 pm 13:00 Cloudy with Light Rain 56 13.3 54 12.2 93 93 WNW 9 15 29.74 1007 10 16 0.01 0.25
1:29 pm 13:29 Cloudy with Light Rain 56 13.3 54 12.2 93 93 WNW 8 13 29.75 1007 10 16 0.01 0.25
1:39 pm 13:39 Cloudy with Light Rain 56 13.3 53 11.7 90 90 W 10 17 29.75 1007 10 16 0.02 0.51
1:52 pm 13:52 Cloudy with Light Rain 56 13.3 53 11.7 90 90 W 12 19 29.74 1007 10 16 0.02 0.51
2:52 pm 14:52 Cloudy with Light Rain 57 13.9 54 12.2 90 90 W 10 17 29.76 1008 10 16 0.02 0.51
3:52 pm 15:52 Cloudy with Light Rain 58 14.4 56 13.3 93 93 W 8 13 29.77 1008 10 16 0.03 0.76
4:44 pm 16:44 Cloudy with Light Rain 59 15 56 13.3 90 90 W 9 15 29.78 1008 10 16 0.00 0.00
4:52 pm 16:52 Cloudy with Light Rain 59 15 56 13.3 90 90 W 12 19 29.78 1008 10 16 0.00 0.00
5:52 pm 17:52 Cloudy with Light Rain 60 15.6 57 13.9 90 90 WNW 8 13 29.78 1009 10 16 0.00 0.00
6:05 pm 18:05 Cloudy with Light Rain 60 15.6 57 13.9 90 90 W 8 13 29.77 1008 10 16 0.01 0.25
6:52 pm 18:52 Cloudy with Light Rain 59 15 57 13.9 93 93 W 7 11 29.79 1009 10 16 0.01 0.25
7:41 pm 19:41 Cloudy with Light Rain 59 15 56 13.3 90 90 W 18 30 29.80 1009 3 5 0.01 0.25
7:50 pm 19:50 Cloudy with Light Rain 57 14 57 14 100 100 WNW 14 22 29.81 1010 3 5 0.02 0.51
7:52 pm 19:52 Cloudy with Light Rain 58 14.4 57 13.9 97 97 WNW 13 20 29.81 1009 3 4 0.02 0.51
8:00 pm 20:00 Cloudy with Light Rain 58 14.4 56 13.3 93 93 WNW 13 20 29.81 1009 4 6 0.01 0.25
8:07 pm 20:07 Cloudy with Light Rain 58 14.4 56 13.3 93 93 WNW 14 22 29.82 1010 9 14 0.01 0.25
8:23 pm 20:23 Cloudy 58 14.4 56 13.3 93 93 WNW 12 19 29.82 1010 10 16 0.01 0.25
8:52 pm 20:52 Cloudy 57 13.9 55 12.8 93 93 WNW 10 17 29.83 1010 10 16 0.01 0.25
9:12 pm 21:12 Cloudy 57 13.9 55 12.8 93 93 NW 13 20 29.84 1011 10 16 0.00 0.00
9:52 pm 21:52 Cloudy 57 13.9 55 12.8 93 93 WNW 13 20 29.85 1011 10 16 0.00 0.00
10:41 pm 22:41 Cloudy 56 13.3 54 12.2 93 93 NW 10 17 29.88 1012 10 16 0.00 0.00
10:52 pm 22:52 Cloudy 56 13.3 53 11.7 90 90 NW 10 17 29.88 1012 10 16 0.00 0.00
11:21 pm 23:21 Cloudy 56 13.3 52 11.1 87 87 WNW 12 19 29.89 1012 10 16 0.00 0.00
11:52 pm 23:52 Cloudy 55 12.8 52 11.1 90 90 WNW 10 17 29.88 1012 10 16 0.00 0.00

Powered by AerisWeather